DW1806 Weather Reports


Display with metric or nautical units.
time (UTC)temp
F
wind
direction
speed
MPH
gust
MPH
rain 1hr
in
rain 24hr
in
rain mn
in
humidity
%
barometer
mb
20260831150522 67 143 0.0 0.0 0.00 0.00 0.32 97 1016.3
20260831150022 67 143 0.0 0.0 0.00 0.00 0.32 97 1016.2
20260831145521 67 143 0.0 0.0 0.00 0.00 0.32 97 1016.0
20260831145021 67 143 0.0 0.0 0.00 0.00 0.32 97 1016.0
20260831144522 67 143 0.0 0.0 0.00 0.00 0.32 97 1016.1
20260831144022 67 144 0.0 0.0 0.00 0.00 0.32 97 1016.1
20260831143521 67 145 0.0 0.0 0.00 0.00 0.32 97 1016.1
20260831143022 67 154 0.0 0.0 0.00 0.00 0.32 97 1016.1
20260831142520 67 160 0.0 0.0 0.00 0.00 0.32 97 1016.2
20260831142021 67 160 0.0 0.0 0.00 0.00 0.31 97 1016.2
20260831141520 67 162 0.0 0.0 0.00 0.00 0.28 97 1016.2
20260831141020 67 162 0.0 0.0 0.00 0.00 0.28 97 1016.2
20260831140520 67 162 0.0 0.0 0.00 0.00 0.27 97 1016.2
20260831140032 67 168 0.0 0.0 0.00 0.00 0.26 97 1016.2
20260831135520 67 169 0.0 0.0 0.00 0.00 0.26 97 1016.2
20260831135020 67 169 0.0 0.0 0.00 0.00 0.26 97 1016.2
20260831134520 67 169 0.0 0.0 0.00 0.00 0.26 97 1016.2
20260831134020 67 169 0.0 0.0 0.00 0.00 0.25 97 1016.2
20260831133519 67 169 0.0 0.0 0.00 0.00 0.25 97 1016.3
20260831133019 66 169 0.0 0.0 0.00 0.00 0.24 97 1016.3
20260831132524 67 169 0.0 0.0 0.00 0.00 0.23 97 1016.3
20260831132020 67 169 0.0 0.0 0.00 0.00 0.22 97 1016.4
20260831131519 67 169 0.0 0.0 0.00 0.00 0.21 97 1016.4
20260831131019 66 180 0.0 0.0 0.00 0.00 0.21 97 1016.3
20260831130518 67 180 0.0 0.0 0.00 0.00 0.20 97 1016.3
20260831130017 67 180 0.0 0.0 0.00 0.00 0.18 97 1016.3
20260831125517 67 180 0.0 0.0 0.00 0.00 0.17 97 1016.2
20260831125018 66 180 0.0 0.0 0.00 0.00 0.16 97 1016.1
20260831124518 66 180 0.0 0.0 0.00 0.00 0.16 97 1016.0
20260831124018 66 180 0.0 0.0 0.00 0.00 0.15 97 1016.0
20260831123520 66 180 0.0 0.0 0.00 0.00 0.14 97 1016.1
20260831123017 66 182 0.0 0.0 0.00 0.00 0.14 97 1016.2
20260831122518 66 182 0.0 0.0 0.00 0.00 0.14 97 1016.0
20260831122017 66 183 0.0 0.0 0.00 0.00 0.14 97 1016.1
20260831121517 66 183 0.0 0.0 0.00 0.00 0.13 97 1016.2
20260831121017 66 183 0.0 0.0 0.00 0.00 0.13 97 1016.2
20260831120516 66 183 0.0 0.0 0.00 0.00 0.13 97 1016.1
20260831120018 66 183 0.0 0.0 0.00 0.00 0.13 97 1016.0
20260831115515 66 185 0.0 0.0 0.00 0.00 0.13 97 1015.9
20260831115016 66 185 0.0 0.0 0.00 0.00 0.13 97 1015.9
20260831114516 66 185 0.0 0.0 0.00 0.00 0.13 97 1016.1
20260831114015 66 185 0.0 0.0 0.00 0.00 0.13 97 1016.1
20260831113518 66 185 0.0 0.0 0.00 0.00 0.13 97 1016.1
20260831113014 66 185 0.0 0.0 0.00 0.00 0.12 97 1016.2
20260831112514 66 185 0.0 0.0 0.00 0.00 0.12 97 1016.1
20260831112014 66 185 0.0 0.0 0.00 0.00 0.12 97 1016.2
20260831111514 66 185 0.0 0.0 0.00 0.00 0.12 97 1016.2
20260831111014 66 185 0.0 0.0 0.00 0.00 0.12 97 1016.2
20260831110517 66 185 0.0 0.0 0.00 0.00 0.12 97 1016.3
20260831110014 66 186 0.0 0.0 0.00 0.00 0.12 97 1016.3
20260831105517 66 185 0.0 0.0 0.00 0.00 0.12 97 1016.3
20260831105014 66 185 0.0 0.0 0.00 0.00 0.12 97 1016.3
20260831104517 66 185 0.0 0.0 0.00 0.00 0.12 97 1016.4
20260831104013 66 185 0.0 0.0 0.00 0.00 0.11 97 1016.3
20260831103513 66 185 0.0 0.0 0.00 0.00 0.11 97 1016.4
20260831103013 66 185 0.0 0.0 0.00 0.00 0.11 97 1016.4
20260831102513 66 185 0.0 0.0 0.00 0.00 0.11 97 1016.3
20260831102013 66 185 0.0 0.0 0.00 0.00 0.11 97 1016.4
20260831101514 66 185 0.0 0.0 0.00 0.00 0.10 97 1016.4
20260831101013 66 185 0.0 0.0 0.00 0.00 0.10 96 1016.5
20260831100512 66 185 0.0 0.0 0.00 0.00 0.10 96 1016.5
20260831100012 66 185 0.0 0.0 0.00 0.00 0.10 96 1016.4
20260831095511 66 185 0.0 0.0 0.00 0.00 0.10 96 1016.4
20260831095011 66 185 0.0 0.0 0.00 0.00 0.10 96 1016.4
20260831094512 66 185 0.0 0.0 0.00 0.00 0.10 96 1016.4
20260831094012 66 186 0.0 0.0 0.00 0.00 0.10 96 1016.3
20260831093512 66 186 0.0 0.0 0.00 0.00 0.10 96 1016.2
20260831093011 66 185 0.0 0.0 0.00 0.00 0.10 96 1016.2
20260831092511 66 185 0.0 0.0 0.00 0.00 0.10 96 1016.2
20260831092010 67 185 0.0 0.0 0.00 0.00 0.10 97 1016.1
20260831091510 67 185 0.0 0.0 0.00 0.00 0.10 97 1016.2
20260831091010 67 185 0.0 0.0 0.00 0.00 0.10 97 1016.3
20260831090508 67 185 0.0 0.0 0.00 0.00 0.10 97 1016.4
20260831090008 67 185 0.0 0.0 0.00 0.00 0.10 97 1016.5
20260831085507 67 185 0.0 0.0 0.00 0.00 0.10 96 1016.5
20260831085007 67 186 0.0 0.0 0.00 0.00 0.10 96 1016.4
20260831084507 67 186 0.0 0.0 0.00 0.00 0.10 96 1016.5
20260831084006 67 186 0.0 0.0 0.00 0.00 0.10 96 1016.5
20260831083506 67 186 0.0 0.0 0.00 0.00 0.10 96 1016.5
20260831083007 67 185 0.0 0.0 0.00 0.00 0.10 96 1016.6
20260831082505 67 186 0.0 0.0 0.00 0.00 0.10 96 1016.7
20260831082006 67 186 0.0 0.0 0.00 0.00 0.10 96 1016.8
20260831081505 67 186 0.0 0.0 0.00 0.00 0.10 96 1016.8
20260831081005 67 186 0.0 0.0 0.00 0.00 0.10 96 1016.8
20260831080504 67 186 0.0 0.0 0.00 0.00 0.10 96 1016.8
20260831080004 67 186 0.0 0.0 0.00 0.00 0.10 96 1016.9
20260831075503 67 186 0.0 0.0 0.00 0.00 0.10 96 1016.9
20260831075004 67 186 0.0 0.0 0.00 0.00 0.10 96 1016.8
20260831074503 67 186 0.0 0.0 0.00 0.00 0.10 96 1016.9
20260831074003 67 186 0.0 0.0 0.00 0.00 0.10 96 1016.9
20260831073502 67 186 0.0 0.0 0.00 0.00 0.09 96 1017.0
20260831073001 67 186 0.0 0.0 0.00 0.00 0.07 96 1017.0
20260831072502 67 186 0.0 0.0 0.00 0.00 0.07 96 1017.1
20260831072004 67 186 0.0 0.0 0.00 0.00 0.07 96 1017.0
20260831071504 67 186 0.0 0.0 0.00 0.00 0.06 96 1017.1
20260831071001 67 186 0.0 0.0 0.00 0.00 0.06 96 1017.0
20260831070501 67 186 0.0 0.0 0.00 0.00 0.06 96 1017.0
20260831070109 67 186 0.0 0.0 0.00 0.00 0.06 96 1017.2
20260831065601 67 186 0.0 0.0 0.00 0.00 0.06 96 1017.2
20260831065100 67 186 0.0 0.0 0.00 0.00 0.06 96 1017.1
20260831064600 67 186 0.0 0.0 0.00 0.00 0.06 96 1016.9
20260831064058 67 186 0.0 0.0 0.00 0.00 0.06 96 1017.0
20260831063558 67 186 0.0 0.0 0.00 0.00 0.05 96 1017.2
20260831063058 67 186 0.0 0.0 0.00 0.00 0.05 96 1017.2
20260831062558 67 186 0.0 0.0 0.00 0.00 0.05 96 1017.2
20260831062058 67 186 0.0 0.0 0.00 0.00 0.04 96 1017.2
20260831061606 67 186 0.0 0.0 0.00 0.00 0.04 96 1017.2
20260831061056 67 186 0.0 0.0 0.00 0.00 0.04 96 1017.3
20260831060557 67 186 0.0 0.0 0.00 0.00 0.04 96 1017.4
20260831060108 67 186 0.0 0.0 0.00 0.00 0.03 96 1017.4
20260831055555 67 186 0.0 0.0 0.00 0.00 0.02 96 1017.3
20260831055055 67 186 0.0 0.0 0.00 0.00 0.02 96 1017.4
20260831054556 67 186 0.0 0.0 0.00 0.00 0.02 96 1017.4
20260831054056 67 186 0.0 0.0 0.00 0.00 0.02 96 1017.3
20260831053556 67 186 0.0 0.0 0.00 0.00 0.02 96 1017.3
20260831053121 67 186 0.0 0.0 0.00 0.00 0.02 96 1017.3
20260831052556 67 186 0.0 0.0 0.00 0.00 0.02 96 1017.3
20260831052058 67 186 0.0 0.0 0.00 0.00 0.02 95 1017.3
20260831051603 67 186 0.0 0.0 0.00 0.00 0.02 95 1017.4
20260831051054 67 186 0.0 0.0 0.00 0.00 0.02 95 1017.4
20260831050553 67 186 0.0 0.0 0.00 0.00 0.02 95 1017.4
20260831050053 67 186 0.0 0.0 0.00 0.00 0.02 95 1017.4
20260831045553 67 186 0.0 0.0 0.00 0.00 0.02 95 1017.3
20260831045055 67 186 0.0 0.0 0.00 0.00 0.02 95 1017.4
20260831044552 67 186 0.0 0.0 0.00 0.00 0.02 95 1017.4
20260831044056 67 186 0.0 0.0 0.00 0.00 0.02 95 1017.4
20260831043552 67 186 0.0 0.0 0.00 0.00 0.02 95 1017.5
20260831043052 67 186 0.0 0.0 0.00 0.00 0.01 95 1017.4
20260831042552 67 186 0.0 0.0 0.00 0.00 0.00 95 1017.4
20260831042052 67 186 0.0 0.0 0.00 0.00 0.00 95 1017.4
20260831041553 67 186 0.0 0.0 0.00 0.00 0.00 95 1017.4
20260831041050 67 186 0.0 0.0 0.00 0.00 0.00 95 1017.4
20260831040550 67 186 0.0 0.0 0.00 0.00 0.00 95 1017.5
20260831040048 67 186 0.0 0.0 0.00 0.00 0.00 95 1017.5
20260831035548 67 186 0.0 0.0 0.00 0.00 0.10 95 1017.6
20260831035048 67 186 0.0 0.0 0.00 0.00 0.10 95 1017.5
20260831034551 67 186 0.0 0.0 0.00 0.00 0.10 95 1017.4
20260831034051 67 186 0.0 0.0 0.00 0.00 0.10 95 1017.5
20260831033548 67 186 0.0 0.0 0.00 0.00 0.10 95 1017.5
20260831033104 67 186 0.0 0.0 0.00 0.00 0.10 94 1017.5
20260831032550 67 186 0.0 0.0 0.00 0.00 0.10 94 1017.5
20260831032048 67 186 0.0 0.0 0.00 0.00 0.09 94 1017.6
20260831031547 67 186 0.0 0.0 0.00 0.00 0.09 94 1017.5
20260831031047 67 186 0.0 0.0 0.00 0.00 0.09 94 1017.6
20260831030547 67 186 0.0 0.0 0.00 0.00 0.09 94 1017.5
20260831030047 67 186 0.0 0.0 0.00 0.00 0.09 94 1017.6
20260831025546 67 186 0.0 0.0 0.00 0.00 0.09 94 1017.6
20260831025047 67 186 0.0 0.0 0.00 0.00 0.09 94 1017.7
20260831024546 67 186 0.0 0.0 0.00 0.00 0.09 94 1017.8
20260831024046 67 186 0.0 0.0 0.00 0.00 0.09 94 1017.8
20260831023547 66 186 0.0 0.0 0.00 0.00 0.09 94 1017.7
20260831023046 66 186 0.0 0.0 0.00 0.00 0.09 94 1017.6
20260831022546 66 186 0.0 0.0 0.00 0.00 0.09 94 1017.6
20260831022046 66 186 0.0 0.0 0.00 0.00 0.09 94 1017.6
20260831021546 66 188 0.0 0.0 0.00 0.00 0.09 93 1017.5
20260831021046 66 190 0.0 0.0 0.00 0.00 0.09 93 1017.7
20260831020545 66 199 0.0 0.0 0.00 0.00 0.09 93 1017.8
20260831015544 65 199 0.0 0.0 0.00 0.00 0.09 93 1017.7
20260831015044 65 199 0.0 0.0 0.00 0.00 0.09 93 1017.8
20260831014544 65 199 0.0 0.0 0.00 0.00 0.09 93 1017.8
20260831014044 65 200 0.0 0.0 0.00 0.00 0.09 93 1017.8
20260831013544 65 200 0.0 0.0 0.00 0.00 0.09 93 1017.8
20260831013044 65 200 0.0 0.0 0.00 0.00 0.09 93 1017.8
20260831012544 65 200 0.0 0.0 0.00 0.00 0.09 93 1017.9
20260831012043 65 200 0.0 0.0 0.00 0.00 0.09 93 1017.8
20260831011546 65 200 0.0 0.0 0.00 0.00 0.09 92 1017.7
20260831011043 65 200 0.0 0.0 0.00 0.00 0.09 92 1017.7
20260831010542 65 200 0.0 0.0 0.00 0.00 0.09 92 1017.7
20260831010044 66 200 0.0 0.0 0.00 0.00 0.09 92 1017.7
20260831005542 66 200 0.0 0.0 0.00 0.00 0.09 92 1017.6
20260831005042 66 200 0.0 0.0 0.00 0.00 0.09 92 1017.6
20260831004542 66 200 0.0 0.0 0.00 0.00 0.09 92 1017.4
20260831004042 66 200 0.0 0.0 0.00 0.00 0.09 92 1017.4
20260831003542 66 200 0.0 0.0 0.00 0.00 0.09 92 1017.3
20260831003041 66 200 0.0 0.0 0.00 0.00 0.09 92 1017.2
20260831002541 66 200 0.0 0.0 0.00 0.00 0.09 92 1017.1
20260831002041 66 200 0.0 0.0 0.00 0.00 0.09 92 1017.1
20260831001541 66 206 0.0 0.0 0.00 0.00 0.09 91 1017.0
20260831001043 66 207 0.0 0.0 0.00 0.00 0.09 91 1017.1
20260831000540 66 207 0.0 0.0 0.00 0.00 0.09 91 1017.1
20260831000044 66 207 0.0 0.0 0.00 0.00 0.09 91 1017.1
20260830235540 66 207 0.0 0.0 0.00 0.00 0.09 91 1017.1
20260830235039 66 207 0.0 0.0 0.00 0.00 0.09 91 1017.1
20260830234540 66 207 0.0 0.0 0.00 0.00 0.09 91 1017.1
20260830234039 66 207 0.0 0.0 0.00 0.00 0.09 91 1017.0
20260830233542 66 207 0.0 0.0 0.00 0.00 0.08 90 1016.9
20260830233045 66 207 0.0 0.0 0.00 0.00 0.08 90 1017.0
20260830232539 66 207 0.0 0.0 0.00 0.00 0.08 90 1016.9
20260830232038 66 207 0.0 0.0 0.00 0.00 0.08 90 1017.0
20260830231538 66 207 0.0 0.0 0.00 0.00 0.08 89 1017.0
20260830231037 66 207 0.0 0.0 0.00 0.00 0.08 89 1016.9
20260830230537 66 207 0.0 0.0 0.00 0.00 0.08 89 1017.0
20260830230037 66 207 0.0 0.0 0.00 0.00 0.08 89 1017.1
20260830225537 66 207 0.0 0.0 0.00 0.00 0.08 89 1017.1
20260830225037 67 207 0.0 0.0 0.00 0.00 0.08 88 1017.2
20260830224537 67 207 0.0 0.0 0.00 0.00 0.08 88 1017.1
20260830224037 67 207 0.0 0.0 0.00 0.00 0.07 88 1017.1
20260830223537 67 207 0.0 0.0 0.00 0.00 0.07 88 1017.0
20260830223037 67 207 0.0 0.0 0.00 0.00 0.07 88 1017.0
20260830222539 67 207 0.0 0.0 0.00 0.00 0.07 88 1017.2
20260830222036 67 207 0.0 0.0 0.00 0.00 0.07 87 1017.0
20260830221540 67 207 0.0 0.0 0.00 0.00 0.07 87 1016.9
20260830221036 67 207 0.0 0.0 0.00 0.00 0.07 87 1017.2
20260830220536 67 207 0.0 0.0 0.00 0.00 0.07 86 1017.1
20260830220036 67 207 0.0 0.0 0.00 0.00 0.07 86 1017.1
20260830215536 67 207 0.0 0.0 0.00 0.00 0.06 86 1017.1
20260830215035 67 207 0.0 0.0 0.00 0.00 0.06 86 1017.1
20260830214535 67 207 0.0 0.0 0.00 0.00 0.06 85 1017.1
20260830214035 67 207 0.0 0.0 0.00 0.00 0.06 86 1017.0
20260830213536 67 207 0.0 0.0 0.00 0.00 0.06 85 1017.0
20260830213038 67 207 0.0 0.0 0.00 0.00 0.06 85 1017.0
20260830212534 67 207 0.0 0.0 0.00 0.00 0.06 86 1016.9
20260830212034 67 207 0.0 0.0 0.00 0.00 0.06 86 1017.0
20260830211534 67 207 0.0 0.0 0.00 0.00 0.06 86 1017.0
20260830211034 67 207 0.0 0.0 0.00 0.00 0.06 86 1016.9
20260830210533 67 254 0.0 0.0 0.00 0.00 0.06 86 1016.9
20260830210035 67 292 0.0 0.0 0.00 0.00 0.06 87 1016.9
20260830205533 67 292 0.0 0.0 0.00 0.00 0.06 87 1016.9
20260830205033 67 292 0.0 0.0 0.00 0.00 0.06 87 1017.0
20260830204533 67 292 0.0 0.0 0.00 0.00 0.06 87 1017.1
20260830204035 67 292 0.0 0.0 0.00 0.00 0.06 87 1017.1
20260830203533 67 292 0.0 0.0 0.00 0.00 0.06 87 1017.2
20260830203033 67 292 0.0 0.0 0.00 0.00 0.06 87 1017.2
20260830202533 67 292 0.0 0.0 0.00 0.00 0.06 87 1017.2
20260830202033 67 292 0.0 0.0 0.00 0.00 0.06 88 1017.3
20260830201532 67 317 0.0 0.0 0.00 0.00 0.06 88 1017.3
20260830201034 67 317 0.0 0.0 0.00 0.00 0.06 88 1017.3
20260830200532 67 327 0.0 0.0 0.00 0.00 0.06 88 1017.3
20260830200032 67 327 0.0 0.0 0.00 0.00 0.06 88 1017.4
20260830195532 67 323 0.0 0.0 0.00 0.00 0.06 88 1017.4
20260830195032 67 279 0.0 0.0 0.00 0.00 0.06 88 1017.4
20260830194532 67 263 0.0 0.0 0.00 0.00 0.06 89 1017.4
20260830194032 67 281 0.0 0.0 0.00 0.00 0.06 89 1017.4
20260830193533 67 281 0.0 0.0 0.00 0.00 0.06 89 1017.4
20260830193031 67 281 0.0 0.0 0.00 0.00 0.06 89 1017.5
20260830192531 67 266 0.0 0.0 0.00 0.00 0.06 89 1017.6
20260830192034 67 250 0.0 0.0 0.00 0.00 0.06 88 1017.5
20260830191538 67 268 0.0 0.0 0.00 0.00 0.06 88 1017.5
20260830191031 67 309 0.0 0.0 0.00 0.00 0.06 88 1017.5
20260830190530 67 261 0.0 0.0 0.00 0.00 0.06 88 1017.6
20260830190030 67 227 0.0 0.0 0.00 0.00 0.06 89 1017.6
20260830185530 67 274 0.0 0.0 0.00 0.00 0.06 89 1017.5
20260830185030 67 229 0.0 0.0 0.00 0.00 0.06 89 1017.6
20260830184529 67 252 0.0 0.0 0.00 0.00 0.06 89 1017.7
20260830184029 66 267 0.0 0.0 0.00 0.00 0.06 89 1017.9
20260830183530 66 293 0.0 0.0 0.00 0.00 0.06 88 1017.9
20260830183030 66 288 0.0 0.0 0.00 0.00 0.06 88 1018.1
20260830182533 67 281 0.0 0.0 0.00 0.00 0.05 87 1018.1
20260830182034 67 233 0.0 0.0 0.00 0.00 0.04 86 1018.3
20260830181530 68 285 0.0 0.0 0.00 0.00 0.04 86 1018.3
20260830181032 68 278 0.0 0.0 0.00 0.00 0.03 86 1018.1
20260830180528 69 286 0.0 0.0 0.00 0.00 0.02 85 1018.1
20260830180028 69 182 0.0 0.0 0.00 0.00 0.02 86 1018.0
20260830175528 69 242 0.0 0.0 0.00 0.00 0.02 87 1017.9
20260830175028 69 220 0.0 0.0 0.00 0.00 0.02 88 1018.0
20260830174529 69 209 0.0 0.0 0.00 0.00 0.02 88 1017.9
20260830174028 69 199 0.0 0.0 0.00 0.00 0.02 88 1017.8
20260830173528 69 199 0.0 0.0 0.00 0.00 0.02 88 1017.7
20260830173028 69 228 0.0 0.0 0.00 0.00 0.02 88 1017.7
20260830172531 69 228 0.0 0.0 0.00 0.00 0.02 88 1017.6
20260830172029 69 228 0.0 0.0 0.00 0.00 0.02 88 1017.6
20260830171528 69 228 0.0 0.0 0.00 0.00 0.02 88 1017.6
20260830171031 69 228 0.0 0.0 0.00 0.00 0.02 88 1017.5
20260830170530 69 229 0.0 0.0 0.00 0.00 0.02 89 1017.5
20260830170040 69 229 0.0 0.0 0.00 0.00 0.02 88 1017.7
20260830165526 69 229 0.0 0.0 0.00 0.00 0.02 89 1017.8
20260830165026 69 229 0.0 0.0 0.00 0.00 0.02 89 1017.8
20260830164526 69 229 0.0 0.0 0.00 0.00 0.02 89 1017.7
20260830164026 69 229 0.0 0.0 0.00 0.00 0.02 89 1017.7
20260830163526 69 229 0.0 0.0 0.00 0.00 0.02 90 1017.7
20260830163031 68 229 0.0 0.0 0.00 0.00 0.02 89 1017.8
20260830162527 68 229 0.0 0.0 0.00 0.00 0.02 89 1017.7
20260830162026 68 229 0.0 0.0 0.00 0.00 0.02 90 1017.7
20260830161525 67 229 0.0 0.0 0.00 0.00 0.02 89 1017.7
20260830161026 68 229 0.0 0.0 0.00 0.00 0.02 89 1017.9
20260830160526 68 229 0.0 0.0 0.00 0.00 0.02 89 1018.0
20260830160027 68 229 0.0 0.0 0.00 0.00 0.02 89 1017.8
20260830155526 68 300 0.0 0.0 0.00 0.00 0.02 89 1017.9
20260830155026 68 300 0.0 0.0 0.00 0.00 0.02 89 1018.0
20260830154524 68 300 0.0 0.0 0.00 0.00 0.02 88 1018.1
20260830154025 68 300 0.0 0.0 0.00 0.00 0.02 88 1018.2
20260830153523 68 300 0.0 0.0 0.00 0.00 0.02 87 1018.2
20260830153028 68 300 0.0 0.0 0.00 0.00 0.02 87 1018.2
20260830152523 68 307 0.0 0.0 0.00 0.00 0.02 86 1018.3
20260830152026 68 252 0.0 0.0 0.00 0.00 0.01 85 1018.3
20260830151523 68 251 0.0 0.0 0.00 0.00 0.01 84 1018.3
20260830151022 69 279 0.0 0.0 0.00 0.00 0.01 83 1018.2